Southern Pines, NC

2:11 PM EDT on October 20, 2017 (GMT -0400)
Moore County

Weather History for KSOP - April, 2014

Change the Weather History Date:

Wednesday, April 2, 2014

  Actual Average Record
Temperature  
Mean Temperature 71 °F -  
Max Temperature 87 °F 67 °F 87 °F (2014)
Min Temperature 55 °F 45 °F 33 °F (1997)
Cooling Degree Days 6    
Growing Degree Days 21 (Base 50)    
Moisture  
Dew Point 35 °F    
Average Humidity 29    
Maximum Humidity 47    
Minimum Humidity 13    
Precipitation  
Precipitation 0.00 in - - ()
Sea Level Pressure  
Sea Level Pressure 30.05 in    
Wind  
Wind Speed 10 mph (WSW)    
Max Wind Speed 17 mph    
Max Gust Speed 24 mph    
Visibility 10 miles    
Events      
Averages and records for this station are not official NWS values.
T = Trace of Precipitation, MM = Missing Value Source: NWS Daily Summary

Daily Weather History Graph

Daily Weather History Graph

Search for Another Location

Airport or City:

Trip Planner

Search our weather history database for the weather conditions in past years. The results will help you decide how hot, cold, wet, or windy it might be!

Date:

Astronomy

Apr. 02, 2014 Rise Set
Actual Time 7:02 AM EDT 7:39 PM EDT
Civil Twilight 6:37 AM EDT 8:05 PM EDT
Nautical Twilight 6:07 AM EDT 8:35 PM EDT
Astronomical Twilight 5:36 AM EDT 9:06 PM EDT
Moon 8:52 AM EDT (4/2) 10:54 PM EDT (4/2)
Length of Visible Light 13h 28m
Length of Day
12h 36m
Waxing Crescent, 10% of the Moon is Illuminated
Apr 2
Waxing Crescent
Apr 7
First Quarter
Apr 15
Full
Apr 22
Last Quarter
Apr 29
New

Hourly Weather History & Observations

Time (EDT) Temp. Dew Point Humidity Pressure Visibility Wind Dir Wind Speed Gust Speed Precip Events Conditions
12:15 AM 62.6 °F 30.2 °F 30% 30.07 in 10.0 mi SSW 11.5 mph - N/A   Clear
12:35 AM 64.4 °F 30.2 °F 28% 30.07 in 10.0 mi SW 15.0 mph - N/A   Clear
12:55 AM 62.6 °F 32.0 °F 32% 30.07 in 10.0 mi SW 12.7 mph - N/A   Clear
1:15 AM 60.8 °F 33.8 °F 36% 30.07 in 10.0 mi SW 11.5 mph - N/A   Clear
1:35 AM 60.8 °F 33.8 °F 36% 30.08 in 10.0 mi SW 9.2 mph - N/A   Clear
1:55 AM 60.8 °F 33.8 °F 36% 30.07 in 10.0 mi WSW 9.2 mph - N/A   Clear
2:15 AM 62.6 °F 33.8 °F 34% 30.07 in 10.0 mi WSW 9.2 mph - N/A   Clear
2:35 AM 62.6 °F 33.8 °F 34% 30.07 in 10.0 mi WSW 9.2 mph - N/A   Clear
2:55 AM 62.6 °F 33.8 °F 34% 30.06 in 10.0 mi WSW 6.9 mph - N/A   Clear
3:15 AM 62.6 °F 33.8 °F 34% 30.06 in 10.0 mi WSW 6.9 mph - N/A   Clear
3:35 AM 62.6 °F 32.0 °F 32% 30.05 in 10.0 mi West 6.9 mph - N/A   Clear
3:55 AM 62.6 °F 32.0 °F 32% 30.05 in 10.0 mi West 5.8 mph - N/A   Clear
4:15 AM 62.6 °F 32.0 °F 32% 30.04 in 10.0 mi WSW 5.8 mph - N/A   Clear
4:35 AM 57.2 °F 33.8 °F 41% 30.05 in 10.0 mi SW 9.2 mph - N/A   Clear
4:55 AM 55.4 °F 33.8 °F 44% 30.05 in 10.0 mi SW 9.2 mph - N/A   Clear
5:15 AM 55.4 °F 33.8 °F 44% 30.05 in 10.0 mi WSW 8.1 mph - N/A   Clear
5:35 AM 55.4 °F 35.6 °F 47% 30.05 in 10.0 mi SW 9.2 mph - N/A   Clear
5:55 AM 55.4 °F 35.6 °F 47% 30.05 in 10.0 mi SW 9.2 mph - N/A   Clear
6:15 AM 55.4 °F 35.6 °F 47% 30.05 in 10.0 mi SW 9.2 mph - N/A   Clear
6:35 AM 55.4 °F 35.6 °F 47% 30.06 in 10.0 mi SW 10.4 mph - N/A   Clear
6:55 AM 55.4 °F 35.6 °F 47% 30.06 in 10.0 mi SW 8.1 mph - N/A   Clear
7:15 AM 55.4 °F 35.6 °F 47% 30.07 in 10.0 mi SW 8.1 mph - N/A   Clear
8:55 AM 62.6 °F 37.4 °F 39% 30.09 in 10.0 mi WSW 8.1 mph - N/A   Clear
9:15 AM 64.4 °F 37.4 °F 37% 30.09 in 10.0 mi WSW 9.2 mph - N/A   Clear
9:35 AM 66.2 °F 37.4 °F 35% 30.10 in 10.0 mi WSW 8.1 mph - N/A   Clear
9:55 AM 69.8 °F 39.2 °F 33% 30.10 in 10.0 mi West 5.8 mph - N/A   Clear
10:15 AM 71.6 °F 39.2 °F 31% 30.10 in 10.0 mi WNW 3.5 mph - N/A   Clear
10:35 AM 71.6 °F 37.4 °F 29% 30.11 in 10.0 mi WNW 5.8 mph - N/A   Clear
10:55 AM 75.2 °F 37.4 °F 25% 30.11 in 10.0 mi West 5.8 mph - N/A   Clear
11:15 AM 75.2 °F 39.2 °F 27% 30.11 in 10.0 mi WSW 8.1 mph - N/A   Clear
11:35 AM 78.8 °F 39.2 °F 24% 30.10 in 10.0 mi West 5.8 mph - N/A   Clear
11:55 AM 80.6 °F 37.4 °F 21% 30.10 in 10.0 mi West 8.1 mph - N/A   Clear
12:15 PM 82.4 °F 35.6 °F 19% 30.10 in 10.0 mi SW 12.7 mph - N/A   Clear
12:35 PM 82.4 °F 35.6 °F 19% 30.09 in 10.0 mi West 6.9 mph - N/A   Clear
12:55 PM 84.2 °F 35.6 °F 18% 30.09 in 10.0 mi SW 6.9 mph 16.1 mph N/A   Clear
1:15 PM 86.0 °F 30.2 °F 13% 30.08 in 10.0 mi West 13.8 mph 23.0 mph N/A   Clear
1:55 PM 86.0 °F 32.0 °F 14% 30.06 in 10.0 mi WSW 11.5 mph 19.6 mph N/A   Clear
2:15 PM 86.0 °F 33.8 °F 15% 30.05 in 10.0 mi West 11.5 mph 18.4 mph N/A   Clear
2:35 PM 86.0 °F 32.0 °F 14% 30.04 in 10.0 mi West 12.7 mph 19.6 mph N/A   Clear
2:55 PM 87.8 °F 35.6 °F 16% 30.03 in 10.0 mi SSW 11.5 mph - N/A   Clear
3:15 PM 87.8 °F 35.6 °F 16% 30.03 in 10.0 mi SW 12.7 mph 19.6 mph N/A   Clear
3:35 PM 87.8 °F 35.6 °F 16% 30.02 in 10.0 mi SW 17.3 mph 21.9 mph N/A   Clear
3:55 PM 87.8 °F 35.6 °F 16% 30.01 in 10.0 mi WSW 15.0 mph 24.2 mph N/A   Clear
4:15 PM 87.8 °F 35.6 °F 16% 30.01 in 10.0 mi WSW 15.0 mph 19.6 mph N/A   Clear
4:35 PM 86.0 °F 33.8 °F 15% 30.00 in 10.0 mi West 10.4 mph 19.6 mph N/A   Clear
4:55 PM 87.8 °F 35.6 °F 16% 30.01 in 10.0 mi SW 16.1 mph 20.7 mph N/A   Clear
5:15 PM 87.8 °F 33.8 °F 15% 30.01 in 10.0 mi West 10.4 mph 17.3 mph N/A   Clear
5:35 PM 86.0 °F 35.6 °F 17% 30.01 in 10.0 mi SW 9.2 mph - N/A   Clear
5:55 PM 86.0 °F 35.6 °F 17% 30.01 in 10.0 mi WSW 10.4 mph 16.1 mph N/A   Clear
6:15 PM 84.2 °F 35.6 °F 18% 30.01 in 10.0 mi WSW 10.4 mph 16.1 mph N/A   Clear
6:35 PM 84.2 °F 33.8 °F 16% 30.01 in 10.0 mi WSW 10.4 mph - N/A   Clear
6:55 PM 82.4 °F 33.8 °F 17% 30.02 in 10.0 mi WSW 10.4 mph - N/A   Clear
7:15 PM 80.6 °F 33.8 °F 18% 30.01 in 10.0 mi WSW 9.2 mph - N/A   Clear
7:35 PM 75.2 °F 35.6 °F 24% 30.01 in 10.0 mi SW 8.1 mph - N/A   Clear
7:55 PM 73.4 °F 37.4 °F 27% 30.01 in 10.0 mi SW 6.9 mph - N/A   Clear
8:15 PM 71.6 °F 37.4 °F 29% 30.02 in 10.0 mi SSW 6.9 mph - N/A   Clear
8:35 PM 68.0 °F 37.4 °F 33% 30.02 in 10.0 mi SSW 5.8 mph - N/A   Clear
8:55 PM 66.2 °F 37.4 °F 35% 30.03 in 10.0 mi SSW 5.8 mph - N/A   Clear
9:15 PM 66.2 °F 37.4 °F 35% 30.04 in 10.0 mi SSW 6.9 mph - N/A   Clear
9:35 PM 68.0 °F 37.4 °F 33% 30.04 in 10.0 mi SSW 8.1 mph - N/A   Clear
9:55 PM 66.2 °F 37.4 °F 35% 30.05 in 10.0 mi SSW 9.2 mph - N/A   Clear
10:15 PM 66.2 °F 39.2 °F 37% 30.05 in 10.0 mi SSW 8.1 mph - N/A   Clear
10:35 PM 64.4 °F 39.2 °F 40% 30.05 in 6.0 mi SW 9.2 mph - N/A   Clear
10:55 PM 64.4 °F 39.2 °F 40% 30.06 in 8.0 mi SW 10.4 mph - N/A   Clear
11:15 PM 66.2 °F 39.2 °F 37% 30.05 in 10.0 mi SW 9.2 mph - N/A   Clear
11:35 PM 64.4 °F 39.2 °F 40% 30.05 in 10.0 mi SW 8.1 mph - N/A   Clear